Regional Weather Roundup
Issued by NWS

Home | Current Version | Previous Version | Graphics & Text | Print | Product List | Glossary Off
Versions: 1 2 3 4 5 6 7 8 9 10 11 12 13 14 15 16 17 18 19 20 21 22 23 24 25 26 27 28 29 30 31 32 33 34 35 36 37 38 39 40 41 42 43 44 45 46 47 48 49 50

000
ASUS43 KDMX 291207
RWRIA

WEATHER ROUNDUP FOR IOWA
NATIONAL WEATHER SERVICE DES MOINES IA
600 AM CST THU JAN 29 2015

NOTE: "FAIR" INDICATES FEW OR NO CLOUDS BELOW 12,000 FEET WITH NO
SIGNIFICANT WEATHER AND/OR OBSTRUCTIONS TO VISIBILITY.

* - THESE STATIONS ARE NOT NWS STATIONS...THUS NOT UNDER NWS
QUALITY CONTROL.  THEY ALSO DO NOT REPORT WEATHER SUCH
AS PRECIPITATION OR FOG.

IAZ001>003-012>014-020>022-031>034-043>046-291300-
   NORTHWEST IOWA

CITY           SKY/WX    TMP DP  RH WIND       PRES   REMARKS
CARROLL *      CLOUDY    34  30  86 NW26G39   30.10R WCI  21
CHEROKEE *     CLOUDY    33  30  88 NW21G36   30.16R WCI  21
DENISON *      CLOUDY    34  32  93 NW20G28   30.13R WCI  22
LE MARS *      CLOUDY    34  28  80 NW22G28   30.21R WCI  22
ORANGE CITY *  CLOUDY    34  28  80 NW14G28   30.18R WCI  24
SHELDON *      CLOUDY    32  30  93 NW26G35   30.15R WCI  18
SIOUX CITY     CLOUDY    34  27  75 NW32G41   30.20R WCI  20
6HR MIN TEMP:  34; 6HR MAX TEMP:  37; 6HR PCP: TRACE;

SPENCER        CLOUDY    33  26  75 NW33G41   30.13R WCI  18
6HR MIN TEMP:  33; 6HR MAX TEMP:  35; 6HR PCP: TRACE;

STORM LAKE *   CLOUDY    32  30  93 NW30G37   30.12R WCI  18
$$

IAZ055>058-069>071-079>083-090>094-291300-
   SOUTHWEST IOWA

CITY           SKY/WX    TMP DP  RH WIND       PRES   REMARKS
ATLANTIC *     CLOUDY    36  30  80 NW21G31   30.14R WCI  24
AUDUBON *      CLOUDY    34  30  86 NW17G26   30.13R WCI  23
CLARINDA *     CLOUDY    37  28  70 N24       30.18R WCI  26
COUNCIL BLFS * CLOUDY    36  30  80 NW21G29   30.17R WCI  24
CRESTON *      CLOUDY    34  32  93 NW21G32   30.09R WCI  22
HARLAN  *      CLOUDY    34  34 100 NW20G33   30.19R WCI  22
LAMONI         CLOUDY    37  28  70 NW18G31   30.07R WCI  27
6HR MIN TEMP:  36; 6HR MAX TEMP:  42;

RED OAK *      CLOUDY    36  30  80 NW18G26   30.17R WCI  25
SHENANDOAH *   CLOUDY    37  28  70 NW25G33   30.19R WCI  26
$$

IAZ047>049-059>061-072>074-084-291300-
   CENTRAL IOWA

CITY           SKY/WX    TMP DP  RH WIND       PRES   REMARKS
AMES           CLOUDY    34  30  85 NW21G28   30.05R WCI  22
6HR MIN TEMP:  34; 6HR MAX TEMP:  35;

ANKENY *       CLOUDY    36  32  87 NW16G24   30.05R WCI  26
CHARITON *     CLOUDY    36  32  87 NW20G31   30.04R WCI  25
DES MOINES     CLOUDY    36  30  79 NW21      30.07R WCI  25
6HR MIN TEMP:  36; 6HR MAX TEMP:  38; 6HR PCP: TRACE;

GRINNELL*      CLOUDY    34  32  93 NW21      29.99R FOG     WCI  22
KNOXVILLE *    CLOUDY    36  32  87 NW21G32   30.02R WCI  24
MARSHALLTOWN   CLOUDY    34  31  88 NW21G31   29.99R WCI  22
6HR MIN TEMP:  33; 6HR MAX TEMP:  34;

PELLA *        CLOUDY    35  32  91 NW18G24   30.03R FOG     WCI  24
PERRY *          N/A     35  32  90 NW22G29   30.09R WCI  23
$$

IAZ004>006-015-016-023>025-035-036-291300-
   NORTH CENTRAL IOWA

CITY           SKY/WX    TMP DP  RH WIND       PRES   REMARKS
ALGONA *       CLOUDY    32  30  93 NW29G35   30.07R WCI  18
CLARION *      MIX PCPN  32  32 100 NW28G35   30.04R WCI  18
ESTHERVILLE    CLOUDY    30  26  85 NW29G41   30.10R WCI  15
6HR MIN TEMP:  30; 6HR MAX TEMP:  33; 6HR PCP: TRACE;

FORT DODGE *   CLOUDY    34  27  75 NW10G24   30.08R WCI  26
MASON CITY     CLOUDY    32  30  92 NW26G35   30.01R FOG     WCI  18
6HR MIN TEMP:  32; 6HR MAX TEMP:  33; 6HR PCP: TRACE;

FOREST CITY *  CLOUDY    32  30  93 NW22G36   30.02R WCI  19
IOWA FALLS *   CLOUDY    34  32  93 NW23G30   30.02R WCI  22
$$

IAZ007>011-017>019-026>030-037>042-050>054-066-291300-
   NORTHEAST IOWA

CITY           SKY/WX    TMP DP  RH WIND       PRES   REMARKS
CEDAR RAPIDS   CLOUDY    33  30  88 NW24G35   29.92R WCI  20
6HR MIN TEMP:  30; 6HR MAX TEMP:  34;

CHARLES CITY * CLOUDY    34  34 100 NW20G29   29.97R WCI  22
CLINTON *      CLOUDY    34  28  80 N21       29.86R WCI  22
DECORAH *      CLOUDY    32  30  93 NW15G22   29.91R FOG     WCI  22
DUBUQUE        CLOUDY    32  28  85 NW23      29.85R FOG     WCI  19
6HR MIN TEMP:  27; 6HR MAX TEMP:  32;

MONTICELLO *   CLOUDY    34  32  93 NW21G29   29.89R WCI  22
OELWEIN *      CLOUDY    32  32 100 NW18      29.94R FOG     WCI  20
WATERLOO       CLOUDY    34  32  92 NW21G28   29.96R WCI  22
6HR MIN TEMP:  32; 6HR MAX TEMP:  34; 6HR PCP: TRACE;

$$

IAZ064-065-067-068-078-291300-
   EAST CENTRAL IOWA

CITY           SKY/WX    TMP DP  RH WIND       PRES   REMARKS
DAVENPORT      CLOUDY    33  29  85 NW21G29   29.85R WCI  21
6HR MIN TEMP:  28; 6HR MAX TEMP:  38;

IOWA CITY      CLOUDY    35  30  82 NW16G26   29.95R WCI  25
6HR MIN TEMP:  29; 6HR MAX TEMP:  35;

MT. PLEASANT * CLOUDY    35  31  84 NW16G23   29.94R WCI  25
MUSCATINE *    CLOUDY    36  30  80 NW24      29.92R WCI  24
QUAD CITIES    CLOUDY    35  30  82 NW17G23   29.84R WCI  25
6HR MIN TEMP:  33; 6HR MAX TEMP:  40;

$$

IAZ062-063-075>077-085>089-095>099-291300-
   SOUTHEAST IOWA

CITY           SKY/WX    TMP DP  RH WIND       PRES   REMARKS
BURLINGTON     CLOUDY    36  32  85 NW18G36   29.91R WCI  26
6HR MIN TEMP:  36; 6HR MAX TEMP:  42;

FAIRFIELD *    CLOUDY    36  30  80 NW29G37   29.96R WCI  23
FORT MADISON * CLOUDY    36  32  87 NW22G28   29.93R WCI  24
KEOKUK *       CLOUDY    37  32  81 NW17G32   29.94R WCI  28
OSKALOOSA *    CLOUDY    34  31  89 NW22G30   30.00R WCI  22
CENTERVILLE *  CLOUDY    36  32  87 NW16G30   30.03R WCI  26
OTTUMWA        CLOUDY    35  30  82 NW24G32   29.99R WCI  23
6HR MIN TEMP:  29; 6HR MAX TEMP:  36;

WASHINGTON *   CLOUDY    36  36 100 NW24G32   29.95R WCI  24
$$

ABBREVIATIONS USED IN REMARKS
   TC - TEMPERATURES IN CELSIUS
  WCI - WIND CHILL INDEX
   HX - HEAT INDEX
  VSB - VISIBILITY
$$



USA.gov is the U.S. government's official web portal to all federal, state and local government web resources and services.